TimeEST,TemperatureF,Dew PointF,Humidity,Sea Level PressureIn,VisibilityMPH,Wind Direction,Wind SpeedMPH,Gust SpeedMPH,PrecipitationIn,Events,Conditions,WindDirDegrees,DateUTC
12:15 AM,35.6,35.6,100,30.13,10.0,Calm,Calm,-,N/A,,Clear,0,2013-02-21 05:15:00
12:35 AM,35.6,35.6,100,30.12,10.0,Calm,Calm,-,N/A,,Clear,0,2013-02-21 05:35:00
12:55 AM,33.8,33.8,100,30.13,10.0,Calm,Calm,-,N/A,,Clear,0,2013-02-21 05:55:00
1:15 AM,33.8,33.8,100,30.13,10.0,Calm,Calm,-,N/A,,Clear,0,2013-02-21 06:15:00
1:35 AM,33.8,33.8,100,30.13,10.0,Calm,Calm,-,N/A,,Clear,0,2013-02-21 06:35:00
1:55 AM,33.8,33.8,100,30.13,10.0,Calm,Calm,-,N/A,,Clear,0,2013-02-21 06:55:00
2:15 AM,33.8,33.8,100,30.13,10.0,Calm,Calm,-,N/A,,Clear,0,2013-02-21 07:15:00
2:35 AM,32.0,32.0,100,30.13,10.0,Calm,Calm,-,N/A,,Clear,0,2013-02-21 07:35:00
2:55 AM,33.8,33.8,100,30.12,10.0,Calm,Calm,-,N/A,,Clear,0,2013-02-21 07:55:00
3:15 AM,32.0,32.0,100,30.12,10.0,Calm,Calm,-,N/A,,Clear,0,2013-02-21 08:15:00
3:35 AM,32.0,32.0,100,30.12,10.0,SW,3.5,-,N/A,,Clear,230,2013-02-21 08:35:00
3:55 AM,32.0,32.0,100,30.12,10.0,Calm,Calm,-,N/A,,Clear,0,2013-02-21 08:55:00
4:15 AM,33.8,33.8,100,30.12,10.0,Calm,Calm,-,N/A,,Clear,0,2013-02-21 09:15:00
4:35 AM,32.0,32.0,100,30.13,10.0,Calm,Calm,-,N/A,,Clear,0,2013-02-21 09:35:00
4:55 AM,32.0,32.0,100,30.13,10.0,Calm,Calm,-,N/A,,Clear,0,2013-02-21 09:55:00
5:15 AM,33.8,33.8,100,30.13,10.0,Calm,Calm,-,N/A,,Clear,0,2013-02-21 10:15:00
5:35 AM,35.6,35.6,100,30.14,10.0,North,5.8,-,N/A,,Clear,350,2013-02-21 10:35:00
5:55 AM,35.6,35.6,100,30.15,10.0,Calm,Calm,-,N/A,,Clear,0,2013-02-21 10:55:00
6:15 AM,35.6,35.6,100,30.16,10.0,Calm,Calm,-,N/A,,Clear,0,2013-02-21 11:15:00
7:15 AM,35.6,33.8,93,30.18,10.0,NNE,6.9,-,N/A,,Clear,30,2013-02-21 12:15:00
7:35 AM,35.6,32.0,87,30.18,10.0,NNE,6.9,-,N/A,,Clear,30,2013-02-21 12:35:00
7:55 AM,37.4,32.0,81,30.19,10.0,NE,5.8,-,N/A,,Clear,40,2013-02-21 12:55:00
8:15 AM,39.2,32.0,75,30.20,10.0,NNE,6.9,-,N/A,,Clear,30,2013-02-21 13:15:00
8:35 AM,41.0,32.0,70,30.21,10.0,NNE,9.2,-,N/A,,Clear,30,2013-02-21 13:35:00
8:55 AM,42.8,32.0,66,30.21,10.0,NE,8.1,-,N/A,,Clear,40,2013-02-21 13:55:00
9:15 AM,42.8,32.0,66,30.21,10.0,ENE,6.9,-,N/A,,Clear,60,2013-02-21 14:15:00
9:35 AM,44.6,32.0,61,30.22,10.0,NE,8.1,-,N/A,,Clear,40,2013-02-21 14:35:00
9:55 AM,46.4,32.0,57,30.21,10.0,NE,8.1,-,N/A,,Clear,50,2013-02-21 14:55:00
10:15 AM,48.2,32.0,54,30.21,10.0,NNE,8.1,-,N/A,,Clear,30,2013-02-21 15:15:00
10:35 AM,50.0,32.0,50,30.22,10.0,ENE,4.6,-,N/A,,Clear,70,2013-02-21 15:35:00
10:55 AM,50.0,32.0,50,30.22,10.0,ENE,6.9,-,N/A,,Clear,60,2013-02-21 15:55:00
11:15 AM,50.0,32.0,50,30.21,10.0,NE,9.2,-,N/A,,Clear,50,2013-02-21 16:15:00
11:35 AM,51.8,32.0,47,30.22,10.0,East,5.8,-,N/A,,Clear,90,2013-02-21 16:35:00
12:15 PM,53.6,32.0,44,30.20,10.0,NE,3.5,-,N/A,,Clear,50,2013-02-21 17:15:00
12:35 PM,53.6,32.0,44,30.19,10.0,ESE,9.2,-,N/A,,Clear,120,2013-02-21 17:35:00
12:55 PM,53.6,32.0,44,30.19,10.0,SE,9.2,-,N/A,,Clear,130,2013-02-21 17:55:00
1:15 PM,53.6,33.8,47,30.18,10.0,SE,8.1,-,N/A,,Clear,140,2013-02-21 18:15:00
1:35 PM,53.6,32.0,44,30.16,10.0,ESE,8.1,-,N/A,,Clear,120,2013-02-21 18:35:00
1:55 PM,53.6,33.8,47,30.16,10.0,ESE,9.2,-,N/A,,Clear,120,2013-02-21 18:55:00
2:15 PM,53.6,33.8,47,30.15,10.0,ESE,9.2,-,N/A,,Clear,120,2013-02-21 19:15:00
2:35 PM,53.6,35.6,51,30.14,10.0,ESE,10.4,-,N/A,,Clear,120,2013-02-21 19:35:00
2:55 PM,53.6,35.6,51,30.13,10.0,SE,11.5,-,N/A,,Clear,130,2013-02-21 19:55:00
3:15 PM,53.6,35.6,51,30.13,10.0,ESE,11.5,-,N/A,,Clear,110,2013-02-21 20:15:00
3:35 PM,53.6,37.4,54,30.12,10.0,East,11.5,-,N/A,,Clear,100,2013-02-21 20:35:00
3:55 PM,53.6,37.4,54,30.12,10.0,ESE,9.2,-,N/A,,Clear,110,2013-02-21 20:55:00
4:15 PM,53.6,37.4,54,30.14,10.0,ESE,8.1,-,N/A,,Clear,120,2013-02-21 21:15:00
4:35 PM,53.6,37.4,54,30.14,10.0,East,5.8,-,N/A,,Clear,100,2013-02-21 21:35:00
4:55 PM,51.8,37.4,58,30.14,10.0,ESE,5.8,-,N/A,,Clear,110,2013-02-21 21:55:00
5:15 PM,51.8,39.2,62,30.13,10.0,ESE,5.8,-,N/A,,Clear,110,2013-02-21 22:15:00
5:35 PM,50.0,39.2,66,30.14,10.0,ESE,4.6,-,N/A,,Clear,110,2013-02-21 22:35:00
5:55 PM,48.2,41.0,76,30.14,10.0,ESE,3.5,-,N/A,,Clear,110,2013-02-21 22:55:00
6:15 PM,46.4,41.0,81,30.14,10.0,ESE,3.5,-,N/A,,Clear,110,2013-02-21 23:15:00
6:35 PM,46.4,41.0,81,30.15,10.0,Calm,Calm,-,N/A,,Clear,0,2013-02-21 23:35:00
6:55 PM,44.6,41.0,87,30.15,10.0,Calm,Calm,-,N/A,,Clear,0,2013-02-21 23:55:00
7:15 PM,42.8,41.0,93,30.15,10.0,Calm,Calm,-,N/A,,Clear,0,2013-02-22 00:15:00
7:35 PM,44.6,41.0,87,30.16,10.0,Calm,Calm,-,N/A,,Clear,0,2013-02-22 00:35:00
7:55 PM,42.8,41.0,93,30.16,10.0,Calm,Calm,-,N/A,,Clear,0,2013-02-22 00:55:00
8:15 PM,42.8,41.0,93,30.16,10.0,Calm,Calm,-,N/A,,Clear,0,2013-02-22 01:15:00
8:35 PM,41.0,41.0,100,30.16,10.0,ENE,3.5,-,N/A,,Clear,60,2013-02-22 01:35:00
8:55 PM,37.4,37.4,100,30.16,10.0,Calm,Calm,-,N/A,,Clear,0,2013-02-22 01:55:00
9:15 PM,41.0,41.0,100,30.17,10.0,Calm,Calm,-,N/A,,Clear,0,2013-02-22 02:15:00
9:35 PM,41.0,41.0,100,30.18,10.0,Calm,Calm,-,N/A,,Clear,0,2013-02-22 02:35:00
9:55 PM,41.0,41.0,100,30.17,10.0,ESE,3.5,-,N/A,,Clear,110,2013-02-22 02:55:00
10:15 PM,42.8,42.8,100,30.19,10.0,Calm,Calm,-,N/A,,Clear,0,2013-02-22 03:15:00
10:35 PM,39.2,39.2,100,30.18,10.0,Calm,Calm,-,N/A,,Clear,0,2013-02-22 03:35:00
10:55 PM,41.0,41.0,100,30.19,10.0,Calm,Calm,-,N/A,,Clear,0,2013-02-22 03:55:00
11:15 PM,41.0,41.0,100,30.20,10.0,Calm,Calm,-,N/A,,Clear,0,2013-02-22 04:15:00
11:35 PM,41.0,41.0,100,30.19,10.0,ENE,4.6,-,N/A,,Clear,70,2013-02-22 04:35:00
11:55 PM,41.0,41.0,100,30.20,10.0,ENE,3.5,-,N/A,,Clear,60,2013-02-22 04:55:00